Year,Month,Day,Hour,Minute,Value (Times are PST for temperature in C)
2012,07,29,00,00,16.10
2012,07,29,00,01,16.10
2012,07,29,00,02,16.10
2012,07,29,00,03,16.10
2012,07,29,00,04,16.00
2012,07,29,00,05,16.00
2012,07,29,00,06,16.00
2012,07,29,00,07,16.00
2012,07,29,00,08,15.90
2012,07,29,00,09,15.90
2012,07,29,00,10,15.90
2012,07,29,00,11,15.80
2012,07,29,00,12,15.80
2012,07,29,00,13,15.80
2012,07,29,00,14,15.70
2012,07,29,00,15,15.70
2012,07,29,00,16,15.70
2012,07,29,00,17,15.70
2012,07,29,00,18,15.60
2012,07,29,00,19,15.60
2012,07,29,00,20,15.60
2012,07,29,00,21,15.60
2012,07,29,00,22,15.50
2012,07,29,00,23,15.50
2012,07,29,00,24,15.50
2012,07,29,00,25,15.40
2012,07,29,00,26,15.40
2012,07,29,00,27,15.40
2012,07,29,00,28,15.40
2012,07,29,00,29,15.40
2012,07,29,00,30,15.30
2012,07,29,00,31,15.30
2012,07,29,00,32,15.30
2012,07,29,00,33,15.30
2012,07,29,00,34,15.20
2012,07,29,00,35,15.20
2012,07,29,00,36,15.20
2012,07,29,00,37,15.10
2012,07,29,00,38,15.10
2012,07,29,00,39,15.10
2012,07,29,00,40,15.10
2012,07,29,00,41,15.00
2012,07,29,00,42,15.00
2012,07,29,00,43,14.90
2012,07,29,00,44,14.90
2012,07,29,00,45,14.90
2012,07,29,00,46,14.80
2012,07,29,00,47,14.80
2012,07,29,00,48,14.80
2012,07,29,00,49,14.80
2012,07,29,00,50,14.80
2012,07,29,00,51,14.70
2012,07,29,00,52,14.70
2012,07,29,00,53,14.70
2012,07,29,00,54,14.70
2012,07,29,00,55,14.70
2012,07,29,00,56,14.60
2012,07,29,00,57,14.60
2012,07,29,00,58,14.60
2012,07,29,00,59,14.60
2012,07,29,01,00,14.50
2012,07,29,01,01,14.50
2012,07,29,01,02,14.50
2012,07,29,01,03,14.40
2012,07,29,01,04,14.40
2012,07,29,01,05,14.40
2012,07,29,01,06,14.30
2012,07,29,01,07,14.30
2012,07,29,01,08,14.30
2012,07,29,01,09,14.20
2012,07,29,01,10,14.20
2012,07,29,01,11,14.20
2012,07,29,01,12,14.20
2012,07,29,01,13,14.10
2012,07,29,01,14,14.10
2012,07,29,01,15,14.10
2012,07,29,01,16,14.10
2012,07,29,01,17,14.00
2012,07,29,01,18,14.00
2012,07,29,01,19,14.00
2012,07,29,01,20,13.90
2012,07,29,01,21,13.90
2012,07,29,01,22,13.90
2012,07,29,01,23,13.90
2012,07,29,01,24,13.80
2012,07,29,01,25,13.80
2012,07,29,01,26,13.80
2012,07,29,01,27,13.80
2012,07,29,01,28,13.80
2012,07,29,01,29,13.80
2012,07,29,01,30,13.70
2012,07,29,01,31,13.70
2012,07,29,01,32,13.70
2012,07,29,01,33,13.70
2012,07,29,01,34,13.70
2012,07,29,01,35,13.60
2012,07,29,01,36,13.60
2012,07,29,01,37,13.60
2012,07,29,01,38,13.50
2012,07,29,01,39,13.50
2012,07,29,01,40,13.50
2012,07,29,01,41,13.40
2012,07,29,01,42,13.40
2012,07,29,01,43,13.40
2012,07,29,01,44,13.40
2012,07,29,01,45,13.40
2012,07,29,01,46,13.30
2012,07,29,01,47,13.30
2012,07,29,01,48,13.30
2012,07,29,01,49,13.30
2012,07,29,01,50,13.20
2012,07,29,01,51,13.20
2012,07,29,01,52,13.20
2012,07,29,01,53,13.20
2012,07,29,01,54,13.10
2012,07,29,01,55,13.10
2012,07,29,01,56,13.10
2012,07,29,01,57,13.10
2012,07,29,01,58,13.10
2012,07,29,01,59,13.10
2012,07,29,02,00,13.00
2012,07,29,02,01,13.00
2012,07,29,02,02,13.00
2012,07,29,02,03,12.90
2012,07,29,02,04,12.90
2012,07,29,02,05,12.90
2012,07,29,02,06,12.90
2012,07,29,02,07,12.90
2012,07,29,02,08,12.90
2012,07,29,02,09,12.90
2012,07,29,02,10,12.90
2012,07,29,02,11,12.90
2012,07,29,02,12,12.90
2012,07,29,02,13,12.80
2012,07,29,02,14,12.80
2012,07,29,02,15,12.80
2012,07,29,02,16,12.80
2012,07,29,02,17,12.80
2012,07,29,02,18,12.80
2012,07,29,02,19,12.80
2012,07,29,02,20,12.70
2012,07,29,02,21,12.70
2012,07,29,02,22,12.70
2012,07,29,02,23,12.70
2012,07,29,02,24,12.70
2012,07,29,02,25,12.60
2012,07,29,02,26,12.60
2012,07,29,02,27,12.60
2012,07,29,02,28,12.60
2012,07,29,02,29,12.50
2012,07,29,02,30,12.50
2012,07,29,02,31,12.50
2012,07,29,02,32,12.50
2012,07,29,02,33,12.40
2012,07,29,02,34,12.40
2012,07,29,02,35,12.40
2012,07,29,02,36,12.40
2012,07,29,02,37,12.40
2012,07,29,02,38,12.40
2012,07,29,02,39,12.40
2012,07,29,02,40,12.30
2012,07,29,02,41,12.40
2012,07,29,02,42,12.30
2012,07,29,02,43,12.30
2012,07,29,02,44,12.30
2012,07,29,02,45,12.30
2012,07,29,02,46,12.30
2012,07,29,02,47,12.30
2012,07,29,02,48,12.30
2012,07,29,02,49,12.30
2012,07,29,02,50,12.30
2012,07,29,02,51,12.30
2012,07,29,02,52,12.30
2012,07,29,02,53,12.30
2012,07,29,02,54,12.20
2012,07,29,02,55,12.20
2012,07,29,02,56,12.20
2012,07,29,02,57,12.20
2012,07,29,02,58,12.20
2012,07,29,02,59,12.20
2012,07,29,03,00,12.20
2012,07,29,03,01,12.20
2012,07,29,03,02,12.20
2012,07,29,03,03,12.20
2012,07,29,03,04,12.20
2012,07,29,03,05,12.20
2012,07,29,03,06,12.20
2012,07,29,03,07,12.20
2012,07,29,03,08,12.20
2012,07,29,03,09,12.20
2012,07,29,03,10,12.20
2012,07,29,03,11,12.10
2012,07,29,03,12,12.10
2012,07,29,03,13,12.10
2012,07,29,03,14,12.10
2012,07,29,03,15,12.10
2012,07,29,03,16,12.10
2012,07,29,03,17,12.10
2012,07,29,03,18,12.00
2012,07,29,03,19,12.00
2012,07,29,03,20,12.00
2012,07,29,03,21,12.00
2012,07,29,03,22,12.00
2012,07,29,03,23,11.90
2012,07,29,03,24,11.90
2012,07,29,03,25,11.90
2012,07,29,03,26,11.90
2012,07,29,03,27,11.90
2012,07,29,03,28,11.90
2012,07,29,03,29,11.90
2012,07,29,03,30,11.90
2012,07,29,03,31,11.90
2012,07,29,03,32,11.90
2012,07,29,03,33,11.90
2012,07,29,03,34,11.90
2012,07,29,03,35,11.90
2012,07,29,03,36,11.80
2012,07,29,03,37,11.80
2012,07,29,03,38,11.80
2012,07,29,03,39,11.80
2012,07,29,03,40,11.80
2012,07,29,03,41,11.80
2012,07,29,03,42,11.80
2012,07,29,03,43,11.80
2012,07,29,03,44,11.80
2012,07,29,03,45,11.80
2012,07,29,03,46,11.80
2012,07,29,03,47,11.80
2012,07,29,03,48,11.80
2012,07,29,03,49,11.70
2012,07,29,03,50,11.70
2012,07,29,03,51,11.70
2012,07,29,03,52,11.70
2012,07,29,03,53,11.70
2012,07,29,03,54,11.70
2012,07,29,03,55,11.70
2012,07,29,03,56,11.60
2012,07,29,03,57,11.60
2012,07,29,03,58,11.60
2012,07,29,03,59,11.60
2012,07,29,04,00,11.60
2012,07,29,04,01,11.60
2012,07,29,04,02,11.50
2012,07,29,04,03,11.50
2012,07,29,04,04,11.50
2012,07,29,04,05,11.50
2012,07,29,04,06,11.40
2012,07,29,04,07,11.40
2012,07,29,04,08,11.40
2012,07,29,04,09,11.40
2012,07,29,04,10,11.40
2012,07,29,04,11,11.40
2012,07,29,04,12,11.40
2012,07,29,04,13,11.40
2012,07,29,04,14,11.40
2012,07,29,04,15,11.40
2012,07,29,04,16,11.40
2012,07,29,04,17,11.40
2012,07,29,04,18,11.40
2012,07,29,04,19,11.40
2012,07,29,04,20,11.40
2012,07,29,04,21,11.40
2012,07,29,04,22,11.40
2012,07,29,04,23,11.40
2012,07,29,04,24,11.40
2012,07,29,04,25,11.40
2012,07,29,04,26,11.40
2012,07,29,04,27,11.30
2012,07,29,04,28,11.30
2012,07,29,04,29,11.30
2012,07,29,04,30,11.30
2012,07,29,04,31,11.30
2012,07,29,04,32,11.30
2012,07,29,04,33,11.30
2012,07,29,04,34,11.30
2012,07,29,04,35,11.30
2012,07,29,04,36,11.30
2012,07,29,04,37,11.30
2012,07,29,04,38,11.30
2012,07,29,04,39,11.30
2012,07,29,04,40,11.30
2012,07,29,04,41,11.20
2012,07,29,04,42,11.20
2012,07,29,04,43,11.20
2012,07,29,04,44,11.20
2012,07,29,04,45,11.20
2012,07,29,04,46,11.20
2012,07,29,04,47,11.20
2012,07,29,04,48,11.10
2012,07,29,04,49,11.10
2012,07,29,04,50,11.10
2012,07,29,04,51,11.10
2012,07,29,04,52,11.10
2012,07,29,04,53,11.10
2012,07,29,04,54,11.00
2012,07,29,04,55,11.00
2012,07,29,04,56,11.00
2012,07,29,04,57,11.00
2012,07,29,04,58,11.00
2012,07,29,04,59,11.00
2012,07,29,05,00,11.00
2012,07,29,05,01,11.00
2012,07,29,05,02,11.00
2012,07,29,05,03,11.00
2012,07,29,05,04,11.00
2012,07,29,05,05,11.00
2012,07,29,05,06,11.00
2012,07,29,05,07,11.00
2012,07,29,05,08,11.00
2012,07,29,05,09,10.90
2012,07,29,05,10,10.90
2012,07,29,05,11,10.90
2012,07,29,05,12,10.90
2012,07,29,05,13,10.90
2012,07,29,05,14,10.90
2012,07,29,05,15,10.90
2012,07,29,05,16,10.90
2012,07,29,05,17,10.90
2012,07,29,05,18,10.90
2012,07,29,05,19,10.80
2012,07,29,05,20,10.80
2012,07,29,05,21,10.80
2012,07,29,05,22,10.80
2012,07,29,05,23,10.90
2012,07,29,05,24,10.90
2012,07,29,05,25,10.90
2012,07,29,05,26,10.90
2012,07,29,05,27,10.90
2012,07,29,05,28,10.90
2012,07,29,05,29,10.90
2012,07,29,05,30,10.90
2012,07,29,05,31,10.90
2012,07,29,05,32,10.90
2012,07,29,05,33,10.80
2012,07,29,05,34,10.80
2012,07,29,05,35,10.80
2012,07,29,05,36,10.80
2012,07,29,05,37,10.80
2012,07,29,05,38,10.80
2012,07,29,05,39,10.80
2012,07,29,05,40,10.80
2012,07,29,05,41,10.80
2012,07,29,05,42,10.80
2012,07,29,05,43,10.80
2012,07,29,05,44,10.80
2012,07,29,05,45,10.80
2012,07,29,05,46,10.80
2012,07,29,05,47,10.80
2012,07,29,05,48,10.80
2012,07,29,05,49,10.80
2012,07,29,05,50,10.80
2012,07,29,05,51,10.80
2012,07,29,05,52,10.80
2012,07,29,05,53,10.80
2012,07,29,05,54,10.80
2012,07,29,05,55,10.80
2012,07,29,05,56,10.80
2012,07,29,05,57,10.70
2012,07,29,05,58,10.70
2012,07,29,05,59,10.70
2012,07,29,06,00,10.70
2012,07,29,06,01,10.70
2012,07,29,06,02,10.70
2012,07,29,06,03,10.70
2012,07,29,06,04,10.70
2012,07,29,06,05,10.70
2012,07,29,06,06,10.70
2012,07,29,06,07,10.70
2012,07,29,06,08,10.70
2012,07,29,06,09,10.70
2012,07,29,06,10,10.70
2012,07,29,06,11,10.70
2012,07,29,06,12,10.70
2012,07,29,06,13,10.70
2012,07,29,06,14,10.70
2012,07,29,06,15,10.70
2012,07,29,06,16,10.70
2012,07,29,06,17,10.70
2012,07,29,06,18,10.70
2012,07,29,06,19,10.70
2012,07,29,06,20,10.70
2012,07,29,06,21,10.70
2012,07,29,06,22,10.70
2012,07,29,06,23,10.70
2012,07,29,06,24,10.70
2012,07,29,06,25,10.70
2012,07,29,06,26,10.80
2012,07,29,06,27,10.80
2012,07,29,06,28,10.80
2012,07,29,06,29,10.80
2012,07,29,06,30,10.80
2012,07,29,06,31,10.80
2012,07,29,06,32,10.90
2012,07,29,06,33,10.90
2012,07,29,06,34,10.90
2012,07,29,06,35,10.90
2012,07,29,06,36,10.90
2012,07,29,06,37,10.90
2012,07,29,06,38,10.90
2012,07,29,06,39,10.90
2012,07,29,06,40,10.90
2012,07,29,06,41,10.90
2012,07,29,06,42,10.90
2012,07,29,06,43,10.90
2012,07,29,06,44,10.90
2012,07,29,06,45,10.90
2012,07,29,06,46,11.00
2012,07,29,06,47,11.00
2012,07,29,06,48,11.00
2012,07,29,06,49,11.10
2012,07,29,06,50,11.10
2012,07,29,06,51,11.10
2012,07,29,06,52,11.10
2012,07,29,06,53,11.20
2012,07,29,06,54,11.20
2012,07,29,06,55,11.20
2012,07,29,06,56,11.20
2012,07,29,06,57,11.20
2012,07,29,06,58,11.20
2012,07,29,06,59,11.20
2012,07,29,07,00,11.20
2012,07,29,07,01,11.30
2012,07,29,07,02,11.30
2012,07,29,07,03,11.30
2012,07,29,07,04,11.30
2012,07,29,07,05,11.30
2012,07,29,07,06,11.30
2012,07,29,07,07,11.30
2012,07,29,07,08,11.30
2012,07,29,07,09,11.30
2012,07,29,07,10,11.40
2012,07,29,07,11,11.40
2012,07,29,07,12,11.40
2012,07,29,07,13,11.40
2012,07,29,07,14,11.40
2012,07,29,07,15,11.40
2012,07,29,07,16,11.40
2012,07,29,07,17,11.50
2012,07,29,07,18,11.50
2012,07,29,07,19,11.50
2012,07,29,07,20,11.60
2012,07,29,07,21,11.60
2012,07,29,07,22,11.70
2012,07,29,07,23,11.70
2012,07,29,07,24,11.70
2012,07,29,07,25,11.70
2012,07,29,07,26,11.70
2012,07,29,07,27,11.80
2012,07,29,07,28,11.80
2012,07,29,07,29,11.80
2012,07,29,07,30,11.80
2012,07,29,07,31,11.90
2012,07,29,07,32,11.90
2012,07,29,07,33,11.90
2012,07,29,07,34,11.90
2012,07,29,07,35,12.00
2012,07,29,07,36,12.10
2012,07,29,07,37,12.10
2012,07,29,07,38,12.10
2012,07,29,07,39,12.20
2012,07,29,07,40,12.20
2012,07,29,07,41,12.20
2012,07,29,07,42,12.20
2012,07,29,07,43,12.30
2012,07,29,07,44,12.30
2012,07,29,07,45,12.30
2012,07,29,07,46,12.30
2012,07,29,07,47,12.40
2012,07,29,07,48,12.40
2012,07,29,07,49,12.40
2012,07,29,07,50,12.50
2012,07,29,07,51,12.50
2012,07,29,07,52,12.60
2012,07,29,07,53,12.60
2012,07,29,07,54,12.60
2012,07,29,07,55,12.70
2012,07,29,07,56,12.70
2012,07,29,07,57,12.80
2012,07,29,07,58,12.80
2012,07,29,07,59,12.90
2012,07,29,08,00,12.90
2012,07,29,08,01,13.00
2012,07,29,08,02,13.00
2012,07,29,08,03,13.10
2012,07,29,08,04,13.10
2012,07,29,08,05,13.10
2012,07,29,08,06,13.20
2012,07,29,08,07,13.20
2012,07,29,08,08,13.20
2012,07,29,08,09,13.30
2012,07,29,08,10,13.30
2012,07,29,08,11,13.30
2012,07,29,08,12,13.40
2012,07,29,08,13,13.40
2012,07,29,08,14,13.40
2012,07,29,08,15,13.50
2012,07,29,08,16,13.50
2012,07,29,08,17,13.60
2012,07,29,08,18,13.60
2012,07,29,08,19,13.70
2012,07,29,08,20,13.70
2012,07,29,08,21,13.80
2012,07,29,08,22,13.80
2012,07,29,08,23,13.90
2012,07,29,08,24,13.90
2012,07,29,08,25,14.00
2012,07,29,08,26,14.00
2012,07,29,08,27,14.10
2012,07,29,08,28,14.10
2012,07,29,08,29,14.10
2012,07,29,08,30,14.20
2012,07,29,08,31,14.20
2012,07,29,08,32,14.30
2012,07,29,08,33,14.40
2012,07,29,08,34,14.50
2012,07,29,08,35,14.50
2012,07,29,08,36,14.60
2012,07,29,08,37,14.60
2012,07,29,08,38,14.70
2012,07,29,08,39,14.80
2012,07,29,08,40,14.80
2012,07,29,08,41,14.90
2012,07,29,08,42,14.90
2012,07,29,08,43,15.00
2012,07,29,08,44,15.00
2012,07,29,08,45,15.10
2012,07,29,08,46,15.10
2012,07,29,08,47,15.20
2012,07,29,08,48,15.20
2012,07,29,08,49,15.20
2012,07,29,08,50,15.30
2012,07,29,08,51,15.30
2012,07,29,08,52,15.30
2012,07,29,08,53,15.30
2012,07,29,08,54,15.40
2012,07,29,08,55,15.40
2012,07,29,08,56,15.40
2012,07,29,08,57,15.50
2012,07,29,08,58,15.60
2012,07,29,08,59,15.60
2012,07,29,09,00,15.70
2012,07,29,09,01,15.80
2012,07,29,09,02,15.80
2012,07,29,09,03,15.90
2012,07,29,09,04,16.00
2012,07,29,09,05,16.00
2012,07,29,09,06,16.10
2012,07,29,09,07,16.10
2012,07,29,09,08,16.20
2012,07,29,09,09,16.20
2012,07,29,09,10,16.20
2012,07,29,09,11,16.20
2012,07,29,09,12,16.30
2012,07,29,09,13,16.30
2012,07,29,09,14,16.40
2012,07,29,09,15,16.40
2012,07,29,09,16,16.50
2012,07,29,09,17,16.50
2012,07,29,09,18,16.60
2012,07,29,09,19,16.60
2012,07,29,09,20,16.70
2012,07,29,09,21,16.80
2012,07,29,09,22,16.90
2012,07,29,09,23,17.00
2012,07,29,09,24,17.00
2012,07,29,09,25,17.10
2012,07,29,09,26,17.20
2012,07,29,09,27,17.30
2012,07,29,09,28,17.30
2012,07,29,09,29,17.40
2012,07,29,09,30,17.40
2012,07,29,09,31,17.50
2012,07,29,09,32,17.50
2012,07,29,09,33,17.60
2012,07,29,09,34,17.60
2012,07,29,09,35,17.70
2012,07,29,09,36,17.70
2012,07,29,09,37,17.70
2012,07,29,09,38,17.70
2012,07,29,09,39,17.70
2012,07,29,09,40,17.70
2012,07,29,09,41,17.70
2012,07,29,09,42,17.70
2012,07,29,09,43,17.70
2012,07,29,09,44,17.70
2012,07,29,09,45,17.80
2012,07,29,09,46,17.90
2012,07,29,09,47,17.90
2012,07,29,09,48,18.00
2012,07,29,09,49,18.10
2012,07,29,09,50,18.20
2012,07,29,09,51,18.30
2012,07,29,09,52,18.30
2012,07,29,09,53,18.40
2012,07,29,09,54,18.40
2012,07,29,09,55,18.50
2012,07,29,09,56,18.50
2012,07,29,09,57,18.60
2012,07,29,09,58,18.70
2012,07,29,09,59,18.70
2012,07,29,10,00,18.80
2012,07,29,10,01,18.80
2012,07,29,10,02,18.80
2012,07,29,10,03,18.80
2012,07,29,10,04,18.80
2012,07,29,10,05,18.70
2012,07,29,10,06,18.70
2012,07,29,10,07,18.70
2012,07,29,10,08,18.60
2012,07,29,10,09,18.60
2012,07,29,10,10,18.60
2012,07,29,10,11,18.60
2012,07,29,10,12,18.60
2012,07,29,10,13,18.70
2012,07,29,10,14,18.70
2012,07,29,10,15,18.80
2012,07,29,10,16,18.80
2012,07,29,10,17,18.90
2012,07,29,10,18,18.90
2012,07,29,10,19,18.90
2012,07,29,10,20,19.00
2012,07,29,10,21,19.10
2012,07,29,10,22,19.10
2012,07,29,10,23,19.20
2012,07,29,10,24,19.20
2012,07,29,10,25,19.20
2012,07,29,10,26,19.20
2012,07,29,10,27,19.20
2012,07,29,10,28,19.20
2012,07,29,10,29,19.20
2012,07,29,10,30,19.10
2012,07,29,10,31,19.10
2012,07,29,10,32,19.10
2012,07,29,10,33,19.10
2012,07,29,10,34,19.10
2012,07,29,10,35,19.10
2012,07,29,10,36,19.10
2012,07,29,10,37,19.10
2012,07,29,10,38,19.10
2012,07,29,10,39,19.00
2012,07,29,10,40,19.10
2012,07,29,10,41,19.10
2012,07,29,10,42,19.10
2012,07,29,10,43,19.00
2012,07,29,10,44,19.10
2012,07,29,10,45,19.10
2012,07,29,10,46,19.00
2012,07,29,10,47,19.00
2012,07,29,10,48,19.00
2012,07,29,10,49,19.00
2012,07,29,10,50,19.10
2012,07,29,10,51,19.20
2012,07,29,10,52,19.20
2012,07,29,10,53,19.20
2012,07,29,10,54,19.30
2012,07,29,10,55,19.30
2012,07,29,10,56,19.30
2012,07,29,10,57,19.40
2012,07,29,10,58,19.60
2012,07,29,10,59,19.70
2012,07,29,11,00,19.80
2012,07,29,11,01,19.80
2012,07,29,11,02,19.80
2012,07,29,11,03,19.80
2012,07,29,11,04,19.80
2012,07,29,11,05,19.80
2012,07,29,11,06,19.90
2012,07,29,11,07,19.80
2012,07,29,11,08,19.80
2012,07,29,11,09,19.80
2012,07,29,11,10,19.80
2012,07,29,11,11,19.90
2012,07,29,11,12,19.80
2012,07,29,11,13,19.80
2012,07,29,11,14,19.80
2012,07,29,11,15,19.80
2012,07,29,11,16,19.90
2012,07,29,11,17,20.00
2012,07,29,11,18,20.00
2012,07,29,11,19,20.10
2012,07,29,11,20,20.20
2012,07,29,11,21,20.20
2012,07,29,11,22,20.40
2012,07,29,11,23,20.50
2012,07,29,11,24,20.60
2012,07,29,11,25,20.70
2012,07,29,11,26,20.80
2012,07,29,11,27,20.80
2012,07,29,11,28,20.80
2012,07,29,11,29,20.70
2012,07,29,11,30,20.70
2012,07,29,11,31,20.70
2012,07,29,11,32,20.60
2012,07,29,11,33,20.60
2012,07,29,11,34,20.60
2012,07,29,11,35,20.60
2012,07,29,11,36,20.70
2012,07,29,11,37,20.80
2012,07,29,11,38,20.90
2012,07,29,11,39,21.00
2012,07,29,11,40,21.10
2012,07,29,11,41,21.10
2012,07,29,11,42,21.20
2012,07,29,11,43,21.10
2012,07,29,11,44,21.00
2012,07,29,11,45,20.90
2012,07,29,11,46,20.90
2012,07,29,11,47,20.90
2012,07,29,11,48,20.90
2012,07,29,11,49,20.90
2012,07,29,11,50,21.00
2012,07,29,11,51,21.00
2012,07,29,11,52,21.10
2012,07,29,11,53,21.10
2012,07,29,11,54,21.20
2012,07,29,11,55,21.20
2012,07,29,11,56,21.30
2012,07,29,11,57,21.30
2012,07,29,11,58,21.30
2012,07,29,11,59,21.30
2012,07,29,12,00,21.30
2012,07,29,12,01,21.40
2012,07,29,12,02,21.40
2012,07,29,12,03,21.40
2012,07,29,12,04,21.50
2012,07,29,12,05,21.50
2012,07,29,12,06,21.50
2012,07,29,12,07,21.60
2012,07,29,12,08,21.60
2012,07,29,12,09,21.60
2012,07,29,12,10,21.60
2012,07,29,12,11,21.70
2012,07,29,12,12,21.70
2012,07,29,12,13,21.60
2012,07,29,12,14,21.50
2012,07,29,12,15,21.50
2012,07,29,12,16,21.50
2012,07,29,12,17,21.40
2012,07,29,12,18,21.30
2012,07,29,12,19,21.30
2012,07,29,12,20,21.30
2012,07,29,12,21,21.30
2012,07,29,12,22,21.40
2012,07,29,12,23,21.50
2012,07,29,12,24,21.50
2012,07,29,12,25,21.50
2012,07,29,12,26,21.50
2012,07,29,12,27,21.60
2012,07,29,12,28,21.70
2012,07,29,12,29,21.70
2012,07,29,12,30,21.70
2012,07,29,12,31,21.70
2012,07,29,12,32,21.70
2012,07,29,12,33,21.80
2012,07,29,12,34,21.80
2012,07,29,12,35,21.80
2012,07,29,12,36,21.80
2012,07,29,12,37,21.80
2012,07,29,12,38,21.90
2012,07,29,12,39,22.00
2012,07,29,12,40,22.10
2012,07,29,12,41,22.20
2012,07,29,12,42,22.30
2012,07,29,12,43,22.40
2012,07,29,12,44,22.50
2012,07,29,12,45,22.60
2012,07,29,12,46,22.70
2012,07,29,12,47,22.70
2012,07,29,12,48,22.70
2012,07,29,12,49,22.70
2012,07,29,12,50,22.70
2012,07,29,12,51,22.60
2012,07,29,12,52,22.60
2012,07,29,12,53,22.60
2012,07,29,12,54,22.50
2012,07,29,12,55,22.50
2012,07,29,12,56,22.40
2012,07,29,12,57,22.40
2012,07,29,12,58,22.40
2012,07,29,12,59,22.40
2012,07,29,13,00,22.40
2012,07,29,13,01,22.40
2012,07,29,13,02,22.40
2012,07,29,13,03,22.40
2012,07,29,13,04,22.30
2012,07,29,13,05,22.20
2012,07,29,13,06,22.20
2012,07,29,13,07,22.10
2012,07,29,13,08,22.10
2012,07,29,13,09,22.10
2012,07,29,13,10,22.20
2012,07,29,13,11,22.30
2012,07,29,13,12,22.50
2012,07,29,13,13,22.60
2012,07,29,13,14,22.80
2012,07,29,13,15,22.80
2012,07,29,13,16,22.90
2012,07,29,13,17,22.90
2012,07,29,13,18,22.80
2012,07,29,13,19,22.70
2012,07,29,13,20,22.60
2012,07,29,13,21,22.60
2012,07,29,13,22,22.60
2012,07,29,13,23,22.60
2012,07,29,13,24,22.60
2012,07,29,13,25,22.70
2012,07,29,13,26,22.70
2012,07,29,13,27,22.70
2012,07,29,13,28,22.80
2012,07,29,13,29,22.80
2012,07,29,13,30,22.80
2012,07,29,13,31,22.80
2012,07,29,13,32,22.70
2012,07,29,13,33,22.70
2012,07,29,13,34,22.70
2012,07,29,13,35,22.60
2012,07,29,13,36,22.60
2012,07,29,13,37,22.60
2012,07,29,13,38,22.60
2012,07,29,13,39,22.60
2012,07,29,13,40,22.60
2012,07,29,13,41,22.60
2012,07,29,13,42,22.70
2012,07,29,13,43,22.70
2012,07,29,13,44,22.70
2012,07,29,13,45,22.70
2012,07,29,13,46,22.80
2012,07,29,13,47,22.90
2012,07,29,13,48,22.90
2012,07,29,13,49,22.90
2012,07,29,13,50,22.80
2012,07,29,13,51,22.80
2012,07,29,13,52,22.80
2012,07,29,13,53,22.90
2012,07,29,13,54,22.90
2012,07,29,13,55,22.90
2012,07,29,13,56,23.00
2012,07,29,13,57,23.00
2012,07,29,13,58,23.00
2012,07,29,13,59,23.00
2012,07,29,14,00,22.90
2012,07,29,14,01,22.90
2012,07,29,14,02,23.00
2012,07,29,14,03,23.10
2012,07,29,14,04,23.20
2012,07,29,14,05,23.20
2012,07,29,14,06,23.20
2012,07,29,14,07,23.20
2012,07,29,14,08,23.10
2012,07,29,14,09,23.00
2012,07,29,14,10,22.90
2012,07,29,14,11,22.90
2012,07,29,14,12,22.90
2012,07,29,14,13,22.90
2012,07,29,14,14,22.80
2012,07,29,14,15,22.80
2012,07,29,14,16,22.80
2012,07,29,14,17,22.70
2012,07,29,14,18,22.70
2012,07,29,14,19,22.70
2012,07,29,14,20,22.60
2012,07,29,14,21,22.60
2012,07,29,14,22,22.60
2012,07,29,14,23,22.70
2012,07,29,14,24,22.70
2012,07,29,14,25,22.70
2012,07,29,14,26,22.60
2012,07,29,14,27,22.60
2012,07,29,14,28,22.50
2012,07,29,14,29,22.40
2012,07,29,14,30,22.50
2012,07,29,14,31,22.60
2012,07,29,14,32,22.60
2012,07,29,14,33,22.70
2012,07,29,14,34,22.60
2012,07,29,14,35,22.60
2012,07,29,14,36,22.60
2012,07,29,14,37,22.70
2012,07,29,14,38,22.70
2012,07,29,14,39,22.80
2012,07,29,14,40,22.80
2012,07,29,14,41,22.90
2012,07,29,14,42,23.00
2012,07,29,14,43,23.00
2012,07,29,14,44,23.00
2012,07,29,14,45,22.90
2012,07,29,14,46,22.90
2012,07,29,14,47,22.90
2012,07,29,14,48,22.90
2012,07,29,14,49,22.90
2012,07,29,14,50,22.90
2012,07,29,14,51,22.90
2012,07,29,14,52,22.90
2012,07,29,14,53,22.90
2012,07,29,14,54,22.90
2012,07,29,14,55,23.00
2012,07,29,14,56,23.00
2012,07,29,14,57,23.00
2012,07,29,14,58,23.00
2012,07,29,14,59,23.00
2012,07,29,15,00,22.90
2012,07,29,15,01,22.90
2012,07,29,15,02,22.90
2012,07,29,15,03,22.90
2012,07,29,15,04,22.90
2012,07,29,15,05,23.00
2012,07,29,15,06,23.10
2012,07,29,15,07,23.10
2012,07,29,15,08,23.20
2012,07,29,15,09,23.20
2012,07,29,15,10,23.30
2012,07,29,15,11,23.40
2012,07,29,15,12,23.40
2012,07,29,15,13,23.40
2012,07,29,15,14,23.30
2012,07,29,15,15,23.30
2012,07,29,15,16,23.20
2012,07,29,15,17,23.20
2012,07,29,15,18,23.20
2012,07,29,15,19,23.30
2012,07,29,15,20,23.40
2012,07,29,15,21,23.50
2012,07,29,15,22,23.60
2012,07,29,15,23,23.60
2012,07,29,15,24,23.60
2012,07,29,15,25,23.60
2012,07,29,15,26,23.50
2012,07,29,15,27,23.40
2012,07,29,15,28,23.40
2012,07,29,15,29,23.50
2012,07,29,15,30,23.60
2012,07,29,15,31,23.60
2012,07,29,15,32,23.70
2012,07,29,15,33,23.70
2012,07,29,15,34,23.70
2012,07,29,15,35,23.70
2012,07,29,15,36,23.70
2012,07,29,15,37,23.70
2012,07,29,15,38,23.80
2012,07,29,15,39,23.90
2012,07,29,15,40,23.90
2012,07,29,15,41,23.90
2012,07,29,15,42,23.90
2012,07,29,15,43,23.80
2012,07,29,15,44,23.80
2012,07,29,15,45,23.70
2012,07,29,15,46,23.70
2012,07,29,15,47,23.70
2012,07,29,15,48,23.80
2012,07,29,15,49,23.80
2012,07,29,15,50,23.90
2012,07,29,15,51,23.90
2012,07,29,15,52,23.80
2012,07,29,15,53,23.80
2012,07,29,15,54,23.80
2012,07,29,15,55,23.90
2012,07,29,15,56,24.00
2012,07,29,15,57,24.00
2012,07,29,15,58,24.10
2012,07,29,15,59,24.10
2012,07,29,16,00,24.20
2012,07,29,16,01,24.20
2012,07,29,16,02,24.20
2012,07,29,16,03,24.20
2012,07,29,16,04,24.10
2012,07,29,16,05,24.10
2012,07,29,16,06,24.10
2012,07,29,16,07,24.00
2012,07,29,16,08,23.90
2012,07,29,16,09,23.70
2012,07,29,16,10,23.60
2012,07,29,16,11,23.50
2012,07,29,16,12,23.40
2012,07,29,16,13,23.40
2012,07,29,16,14,23.40
2012,07,29,16,15,23.40
2012,07,29,16,16,23.40
2012,07,29,16,17,23.40
2012,07,29,16,18,23.50
2012,07,29,16,19,23.60
2012,07,29,16,20,23.70
2012,07,29,16,21,23.80
2012,07,29,16,22,23.80
2012,07,29,16,23,23.80
2012,07,29,16,24,23.90
2012,07,29,16,25,23.90
2012,07,29,16,26,23.90
2012,07,29,16,27,23.90
2012,07,29,16,28,23.80
2012,07,29,16,29,23.80
2012,07,29,16,30,23.80
2012,07,29,16,31,23.80
2012,07,29,16,32,23.80
2012,07,29,16,33,23.80
2012,07,29,16,34,23.80
2012,07,29,16,35,23.80
2012,07,29,16,36,23.80
2012,07,29,16,37,23.80
2012,07,29,16,38,23.90
2012,07,29,16,39,23.90
2012,07,29,16,40,24.00
2012,07,29,16,41,24.00
2012,07,29,16,42,24.10
2012,07,29,16,43,24.10
2012,07,29,16,44,24.10
2012,07,29,16,45,24.10
2012,07,29,16,46,24.00
2012,07,29,16,47,24.00
2012,07,29,16,48,24.10
2012,07,29,16,49,24.10
2012,07,29,16,50,24.00
2012,07,29,16,51,23.80
2012,07,29,16,52,23.80
2012,07,29,16,53,23.70
2012,07,29,16,54,23.70
2012,07,29,16,55,23.70
2012,07,29,16,56,23.70
2012,07,29,16,57,23.70
2012,07,29,16,58,23.80
2012,07,29,16,59,23.80
2012,07,29,17,00,23.80
2012,07,29,17,01,23.80
2012,07,29,17,02,23.80
2012,07,29,17,03,23.80
2012,07,29,17,04,23.80
2012,07,29,17,05,23.70
2012,07,29,17,06,23.70
2012,07,29,17,07,23.70
2012,07,29,17,08,23.60
2012,07,29,17,09,23.60
2012,07,29,17,10,23.60
2012,07,29,17,11,23.60
2012,07,29,17,12,23.60
2012,07,29,17,13,23.60
2012,07,29,17,14,23.60
2012,07,29,17,15,23.60
2012,07,29,17,16,23.70
2012,07,29,17,17,23.70
2012,07,29,17,18,23.80
2012,07,29,17,19,23.90